Stations météo

Publicité
Cazaux, France (7502): Température de l'air & dewpoint: 19.06.2018 15:00:00 - 25.06.2018 15:00:00 (CEST)Cazaux, France (7502): Température de l'air 5cm: 19.06.2018 15:00:00 - 25.06.2018 15:00:00 (CEST)Cazaux, France (7502): Température de l'air -20cm & Température de l'air -100cm: 19.06.2018 15:00:00 - 25.06.2018 15:00:00 (CEST)Cazaux, France (7502): Vitesse du vent & gusts: 19.06.2018 15:00:00 - 25.06.2018 15:00:00 (CEST)Cazaux, France (7502): Direction du vent: 19.06.2018 15:00:00 - 25.06.2018 15:00:00 (CEST)Cazaux, France (7502): reduced air pressure: 19.06.2018 15:00:00 - 25.06.2018 15:00:00 (CEST)Cazaux, France (7502): visibility: 19.06.2018 15:00:00 - 25.06.2018 15:00:00 (CEST)Cazaux, France (7502): Quantités de précipitations: 19.06.2018 15:00:00 - 25.06.2018 15:00:00 (CEST)
Date & Time tt [°C] td [°C] tt 5cm [°C] tt -20cm [°C] tt -100cm [°C] ff [km/h] ff [knt] fx [km/h] fx [knt] dd ppp [hPa] vv [km] rr [mm]
25.06.2018 15:00:00 29,2 6,5 35,4 22,0 21,0 16 9 33 18 ENE 1017,8 47 0,0
25.06.2018 14:00:00 28,0 7,3 33,4 22,0 21,0 18 10 37 20 NE 1018,1 46 0,0
25.06.2018 13:00:00 26,9 9,3 32,0 22,0 21,0 20 11 37 20 NE 1018,4 36 0,0
25.06.2018 12:00:00 25,7 8,2 30,7 22,1 21,0 20 11 36 19 ENE 1018,7 38 0,0
25.06.2018 11:00:00 23,7 8,9 27,3 22,2 21,0 17 9 27 15 NE 1018,7 30 0,0
25.06.2018 10:00:00 21,7 9,9 25,2 22,3 20,9 18 10 29 15 ENE 1018,8 29 0,0
25.06.2018 09:00:00 19,3 10,0 19,5 22,4 20,9 14 7 24 13 NE 1018,8 31 0,0
25.06.2018 08:00:00 16,6 10,0 14,0 22,5 20,9 13 7 22 12 NNE 1018,6 34 0,0
25.06.2018 07:00:00 15,1 9,7 11,3 22,6 20,9 14 8 21 11 NNE 1018,5 35 0,0
25.06.2018 06:00:00 14,2 9,8 11,1 22,7 20,9 11 6 18 10 N 1018,4 49 0,0
25.06.2018 05:00:00 15,6 9,9 12,5 22,8 21,0 13 7 20 11 N 1018,1 60 0,0
25.06.2018 04:00:00 16,8 10,4 11,1 22,9 20,9 14 8 21 12 N 1018,3 60 0,0
25.06.2018 03:00:00 16,4 10,5 11,6 22,9 20,9 6 3 15 8 N 1018,7 60 0,0
25.06.2018 02:00:00 18,6 10,9 16,5 23,0 20,9 13 7 21 12 NNE 1018,7 60 0,0
25.06.2018 01:00:00 19,9 11,1 17,8 23,0 20,9 14 7 20 11 NNE 1018,9 60 0,0
25.06.2018 00:00:00 20,8 11,7 18,6 22,9 20,9 12 6 23 13 NNE 1018,9 60 0,0
24.06.2018 23:00:00 22,5 11,9 20,7 22,9 20,9 18 10 27 15 NNE 1018,6 60 0,0
24.06.2018 22:00:00 24,0 12,3 22,4 22,8 20,9 16 9 22 12 NNE 1017,9 60 0,0
24.06.2018 21:00:00 25,8 10,8 25,4 22,7 20,9 14 7 23 12 NNE 1017,5 59 0,0
24.06.2018 20:00:00 27,4 8,8 29,6 22,5 20,9 16 9 27 14 NNE 1017,4 60 0,0
24.06.2018 19:00:00 28,2 8,5 30,5 22,4 20,9 17 9 31 17 NNE 1017,4 60 0,0
24.06.2018 18:00:00 28,9 7,5 33,4 22,2 20,9 17 9 34 19 NE 1017,4 60 0,0
24.06.2018 17:00:00 29,1 7,6 35,9 22,0 20,9 12 7 27 15 NNE 1017,5 60 0,0
24.06.2018 16:00:00 28,9 8,6 35,0 21,9 20,9 8 5 36 19 NNE 1017,8 60 0,0
24.06.2018 15:00:00 28,2 9,0 35,2 21,8 20,9 13 7 30 16 NNE 1018,3 48 0,0
24.06.2018 14:00:00 27,2 9,5 33,4 21,8 20,9 13 7 26 14 ENE 1018,5 47 0,0
24.06.2018 13:00:00 26,5 9,4 32,1 21,8 20,9 14 8 27 14 ENE 1018,9 60 0,0
24.06.2018 12:00:00 24,6 9,7 28,1 21,9 20,9 10 5 19 11 NNE 1019,1 60 0,0
24.06.2018 11:00:00 23,1 10,8 28,0 22,0 20,9 6 3 15 8 ENE 1019,2 51 0,0
24.06.2018 10:00:00 20,5 10,9 23,0 22,1 20,8 8 5 19 10 ENE 1019,3 39 0,0
24.06.2018 09:00:00 16,7 10,1 14,6 22,2 20,8 10 6 15 8 NNE 1019,3 50 0,0
24.06.2018 08:00:00 14,2 9,6 12,0 22,3 20,8 9 5 13 7 N 1019,0 47 0,0
24.06.2018 07:00:00 13,4 9,1 10,3 22,4 20,8 9 5 13 7 N 1018,9 52 0,0
24.06.2018 06:00:00 13,5 8,8 10,3 22,5 20,8 10 5 15 8 N 1019,0 60 0,0
24.06.2018 05:00:00 14,5 8,7 12,2 22,6 20,8 11 6 18 10 N 1018,7 60 0,0
24.06.2018 04:00:00 15,4 9,1 13,1 22,7 20,8 12 7 17 9 N 1019,1 60 0,0
24.06.2018 03:00:00 15,9 9,6 13,4 22,8 20,8 11 6 15 8 N 1019,2 60 0,0
24.06.2018 02:00:00 16,6 10,0 13,9 22,8 20,8 11 6 16 9 N 1019,6 60 0,0
24.06.2018 01:00:00 18,6 9,9 15,8 22,9 20,8 11 6 17 9 NNE 1019,9 60 0,0
24.06.2018 00:00:00 19,5 10,8 15,4 22,8 20,8 12 6 21 11 N 1020,1 60 0,0
23.06.2018 23:00:00 21,3 10,5 16,4 22,8 20,8 12 6 17 9 NNE 1020,2 60 0,0
23.06.2018 22:00:00 23,5 9,5 21,0 22,7 20,8 12 6 19 10 NNE 1019,4 60 0,0
23.06.2018 21:00:00 26,1 8,1 26,2 22,6 20,8 13 7 23 12 NNE 1019,2 55 0,0
23.06.2018 20:00:00 27,2 7,1 29,1 22,4 20,8 16 9 25 13 NE 1019,2 53 0,0
23.06.2018 19:00:00 28,0 6,7 32,9 22,2 20,8 16 8 29 16 NE 1019,3 55 0,0
23.06.2018 18:00:00 27,7 5,9 33,4 22,1 20,8 18 10 30 16 NNE 1019,7 60 0,0
23.06.2018 17:00:00 28,2 6,3 33,6 21,9 20,8 16 8 29 16 NE 1020,0 60 0,0
23.06.2018 16:00:00 27,7 6,4 33,9 21,7 20,8 17 9 32 18 ENE 1020,4 56 0,0
23.06.2018 15:00:00 26,5 5,4 32,9 21,7 20,8 18 10 32 17 NE 1021,1 20 0,0
23.06.2018 14:00:00 25,8 5,9 32,4 21,6 20,8 16 9 30 16 ENE 1021,5 47 0,0
23.06.2018 13:00:00 24,4 7,1 29,9 21,6 20,8 14 8 29 16 NE 1022,1 44 0,0
23.06.2018 12:00:00 23,1 8,0 27,1 21,7 20,8 16 9 27 15 ENE 1022,4 39 0,0
23.06.2018 11:00:00 21,2 8,1 25,3 21,8 20,8 20 11 31 17 ENE 1022,5 24 0,0
23.06.2018 10:00:00 19,4 8,4 22,8 21,9 20,7 21 11 31 17 NE 1022,8 11 0,0
23.06.2018 09:00:00 17,3 8,2 19,2 22,1 20,7 16 9 31 17 NE 1023,0 20 0,0
23.06.2018 08:00:00 14,7 8,4 9,4 22,2 20,7 11 6 15 8 NNE 1022,7 21 0,0
23.06.2018 07:00:00 11,6 8,1 6,4 22,3 20,7 9 5 14 7 N 1022,5 24 0,0
23.06.2018 06:00:00 11,7 7,8 6,7 22,4 20,7 8 4 14 8 N 1022,3 60 0,0
23.06.2018 05:00:00 12,4 8,1 10,1 22,6 20,7 13 7 18 10 N 1022,2 60 0,0
23.06.2018 04:00:00 12,9 8,4 10,1 22,7 20,7 12 7 16 9 N 1022,4 60 0,0
23.06.2018 03:00:00 13,7 8,1 10,2 22,8 20,7 9 5 15 8 N 1022,4 60 0,0
23.06.2018 02:00:00 15,7 8,2 12,8 22,8 20,7 12 7 18 10 N 1022,6 60 0,0
23.06.2018 01:00:00 17,1 8,0 14,2 22,9 20,7 14 7 21 11 N 1022,7 60 0,0
23.06.2018 00:00:00 18,0 7,7 14,5 22,9 20,7 13 7 20 11 N 1022,8 60 0,0
22.06.2018 23:00:00 19,3 7,1 15,6 22,9 20,7 11 6 19 10 NNE 1022,5 60 0,0
22.06.2018 22:00:00 21,2 6,3 18,4 22,8 20,7 12 6 23 13 NNE 1021,9 60 0,0
22.06.2018 21:00:00 23,9 5,3 24,3 22,7 20,7 17 9 31 17 NNE 1021,4 36 0,0
22.06.2018 20:00:00 25,1 4,2 27,6 22,6 20,7 21 11 34 19 NNE 1021,2 45 0,0
22.06.2018 19:00:00 25,8 4,8 30,7 22,4 20,7 19 10 34 18 NNE 1021,0 46 0,0
22.06.2018 18:00:00 26,1 4,5 32,8 22,2 20,7 19 10 35 19 NNE 1021,3 46 0,0
22.06.2018 17:00:00 26,2 5,7 33,5 22,0 20,7 17 9 37 20 NNE 1021,5 20 0,0
22.06.2018 16:00:00 25,9 5,5 32,5 21,8 20,6 16 8 30 16 NNE 1021,7 57 0,0
22.06.2018 15:00:00 25,3 6,9 31,7 21,8 20,7 18 10 32 17 ENE 1021,9 50 0,0
22.06.2018 14:00:00 24,4 9,9 30,8 21,7 20,6 15 8 32 17 NE 1022,3 50 0,0
22.06.2018 13:00:00 23,4 10,1 29,8 21,7 20,6 17 9 32 17 NE 1022,6 43 0,0
22.06.2018 12:00:00 22,2 10,3 28,2 21,8 20,6 21 11 33 18 NE 1022,5 43 0,0
22.06.2018 11:00:00 20,8 10,9 26,3 21,8 20,6 18 10 28 15 NE 1022,5 21 0,0
22.06.2018 10:00:00 19,6 10,3 22,9 21,9 20,6 17 9 31 17 NNE 1022,6 27 0,0
22.06.2018 09:00:00 17,9 9,8 19,7 22,1 20,6 19 10 27 15 NE 1022,7 30 0,0
22.06.2018 08:00:00 16,8 10,2 15,2 22,1 20,6 15 8 25 13 NNE 1022,3 28 0,0
22.06.2018 07:00:00 16,0 10,5 15,0 22,2 20,6 16 8 26 14 NNE 1022,1 32 0,0
22.06.2018 06:00:00 16,6 11,3 14,9 22,3 20,6 16 9 28 15 NNE 1021,8 60 0,0
22.06.2018 05:00:00 17,3 13,0 15,6 22,4 20,6 14 8 24 13 NNE 1021,6 55 0,0
22.06.2018 04:00:00 18,0 15,4 15,9 22,5 20,6 14 8 21 12 NNE 1021,2 41 0,0
22.06.2018 03:00:00 17,7 17,2 15,5 22,6 20,6 11 6 16 8 N 1021,1 30 0,0
22.06.2018 02:00:00 17,9 17,4 14,3 22,6 20,5 6 4 8 4 N 1021,1 0,6 0,0
22.06.2018 01:00:00 19,1 18,6 15,0 22,7 20,5 0 0 8 4 N 1021,1 2,4 0,0
22.06.2018 00:00:00 20,0 19,3 18,5 22,7 20,5 6 3 19 10 SW 1021,2 8 0,0
21.06.2018 23:00:00 20,0 19,3 18,9 22,6 20,5 9 5 14 7 SW 1020,9 8 0,0
21.06.2018 22:00:00 20,4 19,2 19,6 22,5 20,5 9 5 19 11 SW 1020,4 10 0,0
21.06.2018 21:00:00 22,8 19,2 23,3 22,5 20,5 11 6 16 9 WSW 1020,1 19 0,0
21.06.2018 20:00:00 23,8 19,5 26,8 22,4 20,5 10 5 18 10 SW 1019,8 17 0,0
21.06.2018 19:00:00 23,5 19,4 29,3 22,3 20,5 16 8 23 13 SSW 1019,9 17 0,0
21.06.2018 18:00:00 24,0 19,5 28,7 22,2 20,4 18 10 24 13 SSW 1020,1 17 0,0
21.06.2018 17:00:00 23,6 19,5 28,2 22,2 20,5 13 7 20 11 SW 1020,2 19 0,0
21.06.2018 16:00:00 23,4 19,3 28,8 22,2 20,5 13 7 24 13 SW 1020,4 18 0,0
21.06.2018 15:00:00 22,7 20,0 24,1 22,1 20,4 16 9 23 12 SW 1020,5 18 0,0
21.06.2018 14:00:00 21,7 19,4 24,2 22,1 20,4 17 9 26 14 SW 1020,7 16 0,0
21.06.2018 13:00:00 21,6 19,3 24,7 22,2 20,4 18 10 26 14 SW 1020,6 18 0,0
21.06.2018 12:00:00 21,5 19,6 23,8 22,2 20,4 16 9 25 13 SW 1020,3 15 0,0
21.06.2018 11:00:00 21,1 19,7 21,8 22,3 20,4 16 9 23 13 SSW 1019,8 11 0,0
21.06.2018 10:00:00 20,5 19,8 21,3 22,3 20,4 14 7 23 12 SW 1019,6 9 0,0
21.06.2018 09:00:00 20,5 20,0 20,5 22,4 20,4 14 8 26 14 SW 1019,5 9 0,0
21.06.2018 08:00:00 20,2 19,9 20,2 22,5 20,4 13 7 24 13 SW 1019,4 5 0,0
21.06.2018 07:00:00 20,5 20,2 20,3 22,5 20,3 13 7 25 14 SW 1019,2 5 0,0
21.06.2018 06:00:00 20,7 20,4 20,1 22,6 20,3 14 7 24 13 SW 1018,5 7 0,0
21.06.2018 05:00:00 20,8 20,5 18,7 22,7 20,3 14 8 23 13 SW 1018,3 10 0,0
21.06.2018 04:00:00 20,2 19,5 17,6 22,7 20,3 9 5 12 7 SSW 1018,1 16 0,0
21.06.2018 03:00:00 20,6 19,6 18,1 22,8 20,3 3 2 13 7 SW 1018,2 21 0,0
21.06.2018 02:00:00 20,8 19,6 19,0 22,8 20,3 4 2 11 6 SW 1018,4 26 0,0
21.06.2018 01:00:00 21,2 19,7 18,7 22,9 20,3 5 3 11 6 WSW 1018,6 20 0,0
21.06.2018 00:00:00 21,8 18,6 20,3 22,8 20,3 6 3 15 8 WNW 1018,5 35 0,0
20.06.2018 23:00:00 22,8 18,1 21,4 22,7 20,3 10 5 17 9 NNW 1018,1 46 0,0
20.06.2018 22:00:00 23,8 17,3 22,6 22,6 20,3 13 7 18 10 NNW 1017,4 49 0,0
20.06.2018 21:00:00 26,2 18,1 26,7 22,5 20,3 13 7 19 10 NW 1017,1 56 0,0
20.06.2018 20:00:00 28,4 18,5 30,9 22,3 20,3 13 7 22 12 NNW 1016,7 60 0,0
20.06.2018 19:00:00 29,1 17,9 33,6 22,0 20,3 14 8 20 11 NW 1016,9 60 0,0
20.06.2018 18:00:00 29,3 18,1 34,3 21,7 20,3 11 6 25 13 NW 1017,1 60 0,0
20.06.2018 17:00:00 28,9 19,0 34,7 21,5 20,3 17 9 25 14 NNW 1017,4 53 0,0
20.06.2018 16:00:00 29,2 18,6 34,9 21,3 20,3 14 7 24 13 WNW 1017,5 60 0,0
20.06.2018 15:00:00 29,8 18,3 36,2 21,1 20,2 11 6 23 13 NW 1017,7 60 0,0
20.06.2018 14:00:00 30,4 17,5 38,0 21,0 20,3 6 4 14 8 SSW 1018,0 47 0,0
20.06.2018 13:00:00 29,1 16,6 35,9 20,9 20,2 9 5 15 8 SSW 1018,4 20 0,0
20.06.2018 12:00:00 28,2 19,2 34,8 20,9 20,2 8 4 15 8 SW 1018,5 55 0,0
20.06.2018 11:00:00 26,5 19,6 32,3 20,9 20,3 4 2 9 5 WSW 1018,7 39 0,0
20.06.2018 10:00:00 23,3 18,8 28,2 21,0 20,2 4 2 10 5 S 1018,8 28 0,0
20.06.2018 09:00:00 21,1 19,0 22,4 21,1 20,2 4 2 7 4 SE 1018,8 12 0,0
20.06.2018 08:00:00 18,9 18,6 14,8 21,2 20,2 2 1 5 3 E 1018,7 8 0,0
20.06.2018 07:00:00 16,6 16,4 14,2 21,3 20,2 6 3 7 4 N 1018,6 8 0,0
20.06.2018 06:00:00 16,9 16,7 13,7 21,4 20,2 4 2 8 5 NNW 1018,5 8 0,0
20.06.2018 05:00:00 17,0 16,7 12,9 21,5 20,2 7 4 8 4 N 1018,6 10 0,0
20.06.2018 04:00:00 16,7 16,2 13,3 21,5 20,2 6 3 8 4 N 1018,9 10 0,0
20.06.2018 03:00:00 17,4 16,9 13,6 21,6 20,2 5 3 6 4 N 1019,0 6 0,0
20.06.2018 02:00:00 18,0 17,5 13,7 21,6 20,2 2 1 4 2 NNW 1019,6 12 0,0
20.06.2018 01:00:00 18,2 17,4 14,8 21,6 20,2 3 2 11 6 NNW 1020,0 16 0,0
20.06.2018 00:00:00 18,6 17,6 15,9 21,6 20,2 7 4 10 5 NNW 1020,3 18 0,0
19.06.2018 23:00:00 19,0 17,5 16,4 21,6 20,2 5 3 10 5 NNW 1020,5 20 0,0
19.06.2018 22:00:00 20,3 17,1 18,9 21,5 20,2 7 4 18 10 NNW 1020,2 34 0,0
19.06.2018 21:00:00 22,1 17,5 22,7 21,4 20,2 13 7 23 12 NNW 1020,4 18 0,0
19.06.2018 20:00:00 23,0 16,5 24,3 21,2 20,2 17 9 31 17 NNW 1020,9 45 0,0
19.06.2018 19:00:00 23,6 16,6 27,6 21,0 20,2 19 11 31 17 NW 1021,1 54 0,0
19.06.2018 18:00:00 24,0 16,3 29,1 20,9 20,2 20 11 31 17 NW 1021,7 20 0,0
19.06.2018 17:00:00 24,5 16,7 29,4 20,7 20,2 19 11 31 17 NW 1022,2 52 0,0
19.06.2018 16:00:00 25,0 16,7 27,3 20,5 20,2 19 10 34 18 NNW 1022,5 60 0,0
19.06.2018 15:00:00 23,9 16,4 25,1 20,5 20,2 17 9 27 14 WNW 1023,0 20 0,0

tt = Température de l'air
td = dewpoint
tt 5cm = Température de l'air 5cm
tt -20cm = Température de l'air -20cm
tt -100cm = Température de l'air -100cm
ff = Vitesse du vent
fx = gusts
dd = Direction du vent
ppp = reduced air pressure
vv = visibility
rr = Quantités de précipitations

stations d'obs. à proximité